User: anonymous   Login
Location: �terpigny
(49.8910°N, 2.9249°E)
Time: 17:56:46
(UTC+00:00)
Language:

Cosmos 1300 - Orbit

View from above orbital plane
View from above orbital plane
View from above satellite
View from above satellite

Ground track
Ground track

The orbit data is extracted from the following two-line orbital elements,

1 12785U 81082A   22020.93474716  .00001673  00000-0  79527-4 0  9990
2 12785  82.5016 211.5610 0001955 121.6912 353.3167 15.18553944206219
Epoch (UTC): 20 January 2022 22:26:02
Eccentricity: 0.0001955
inclination: 82.5016°
perigee height: 509 km
apogee height: 511 km
right ascension of ascending node: 211.5610°
argument of perigee: 121.6912°
revolutions per day: 15.18553944
mean anomaly at epoch: 353.3167°
orbit number at epoch: 20621

The dashed part of the orbit path shows where the satellite is in the earth's shadow,  

DLR